Location: Vesunti
(61.5000°N, 22.8333°E)
Time: 06:07:58
(UTC+00:00)

COSMOS 2441 - Pass Details

Date: 17 February 2020
Orbit: 707 x 732 km, 98.0° (Epoch: 09 April)

Event Time Altitude Azimuth Distance (km) Brightness Sun altitude
Rises 03:27:44 0° 17° (NNE) 3,176 8.1 -19.6°
Reaches altitude 10° 03:30:03 10° 14° (NNE) 2,249 7.2 -19.3°
Maximum altitude 03:34:54 60° 296° (WNW) 842 4.4 -18.8°
Enters shadow 03:37:16 29° 227° (SW) 1,317 5.3 -18.5°
